Regional Weather Roundup
Issued by NWS

Home | Current Version | Previous Version | Graphics & Text | Print | Product List | Glossary On
Versions: 1 2 3 4 5 6 7 8 9 10 11 12 13 14 15 16 17 18 19 20 21 22 23 24 25 26 27 28 29 30 31 32 33 34 35 36 37 38 39 40 41 42 43 44 45 46 47 48 49 50
000
ASUS43 KOAX 272102
RWRNE

WEATHER ROUNDUP FOR NEBRASKA
NATIONAL WEATHER SERVICE OMAHA NE
400 PM CDT WED AUG 27 2014

NOTES: SATELLITE DATA IS BEING USED TO AUGMENT CLOUD COVER ABOVE
       12000 FEET.
       "FAIR" INDICATES FEW OR NO CLOUDS BELOW 12,000 FEET WITH NO
       SIGNIFICANT WEATHER AND/OR OBSTRUCTIONS TO VISIBILITY.

  * THESE STATIONS DO NOT REPORT WEATHER SUCH AS RAIN...SNOW OR FOG.

NEZ001>004-019>022-054>056-272200-
NEBRASKA PANHANDLE

CITY           SKY/WX    TMP DP  RH WIND       PRES   REMARKS
SCOTTSBLUFF    LGT RAIN  62  62 100 NW6       30.11F
ALLIANCE       LGT RAIN  66  59  78 W15       30.08F
CHADRON        TSTM      66  64  93 NW5       30.07S
KIMBALL        CLOUDY    68  58  69 NW15      30.12F
SIDNEY         CLOUDY    80  59  48 VRB7      30.09F
$$

NEZ057>060-069>072-079>082-272200-
SOUTHWEST NEBRASKA

CITY           SKY/WX    TMP DP  RH WIND       PRES   REMARKS
NORTH PLATTE   PTSUNNY   73  67  81 E13       30.06F
IMPERIAL       PTSUNNY   78  63  59 S10       30.04F
LEXINGTON      CLOUDY    75  69  82 E15       30.07F
MCCOOK         CLOUDY    80  66  62 E13       30.04F
OGALLALA       PTSUNNY   79  64  60 SE16      30.04F
$$

NEZ005>010-023>029-035>040-094-272200-
NORTH CENTRAL NEBRASKA

CITY           SKY/WX    TMP DP  RH WIND       PRES   REMARKS
VALENTINE      PTSUNNY   77  65  66 SE16      30.06F
AINSWORTH      CLOUDY    73  65  76 S12G20    30.09F
BROKEN BOW     CLOUDY    75  67  76 SE12G21   30.09F
O`NEILL        CLOUDY    72  67  85 SE7       30.10F
ORD            CLOUDY    73  67  81 SE7       30.08F
THEDFORD       CLOUDY    71  68  90 SE9G17    30.09F
$$

NEZ041-046>049-061>064-073>077-083>087-272200-
SOUTH CENTRAL NEBRASKA

CITY           SKY/WX    TMP DP  RH WIND       PRES   REMARKS
GRAND ISLAND   CLOUDY    77  69  76 SE9       30.09F
AURORA         PTSUNNY   76  71  84 SE8       30.08F
HASTINGS       CLOUDY    75  67  76 SE10G16   30.08F
HEBRON         CLOUDY    78  69  73 E8        30.06F
HOLDREGE       CLOUDY    73  69  87 E15       30.08F
KEARNEY *      CLOUDY    73  70  88 E10       30.09F
YORK           CLOUDY    75 N/A N/A SE10      30.09F
$$

NEZ011>018-030>034-042>045-272200-
NORTHEAST NEBRASKA

CITY           SKY/WX    TMP DP  RH WIND       PRES   REMARKS
NORFOLK        CLOUDY    72  68  87 SE8       30.10F
ALBION         CLOUDY    73  68  82 SE7       30.09F
BLAIR          CLOUDY    72  69  89 CALM      30.07F
FREMONT        CLOUDY    75  70  85 S8        30.07F
TEKAMAH        CLOUDY    73  69  87 CALM      30.08F
WAYNE          CLOUDY    68  67  96 E5        30.11F
$$

NEZ050>053-065>068-078-088>093-272200-
SOUTHEAST NEBRASKA

CITY           SKY/WX    TMP DP  RH WIND       PRES   REMARKS
LINCOLN        CLOUDY    75  69  81 SE12      30.09F
OMAHA EPPLEY   CLOUDY    74  69  85 CALM      30.06F
BEATRICE       LGT RAIN  74  73  94 E9        30.09F
FALLS CITY     PTSUNNY   80  70  71 SE3       30.08F
NEBRASKA CITY  CLOUDY    73  73  97 SW12      30.09F
PLATTSMOUTH    CLOUDY    74  69  83 S9        30.08S
$$

NEZ044-045-051>053-067-272200-
OMAHA AREA

CITY           SKY/WX    TMP DP  RH WIND       PRES   REMARKS
OMAHA EPPLEY   CLOUDY    74  69  85 CALM      30.06F
BLAIR          CLOUDY    72  69  89 CALM      30.07F
FREMONT        CLOUDY    75  70  85 S8        30.07F
MILLARD        CLOUDY    76  69  79 S5        30.06F
OFFUTT AFB     CLOUDY    74  74  99 S9        30.06F
PLATTSMOUTH    CLOUDY    74  69  83 S9        30.08S
WAHOO          FAIR      75  66  74 S10       30.08F
$$



USA.gov is the U.S. government's official web portal to all federal, state and local government web resources and services.